Forest City, IA

9:53 PM CDT on October 23, 2017 (GMT -0500)
Forest City Municipal

Weather History for KFXY - April, 2014

Change the Weather History Date:

Wednesday, April 23, 2014

  Actual Average Record
Temperature  
Mean Temperature 46 °F -  
Max Temperature 50 °F 60 °F 71 °F (2017)
Min Temperature 42 °F 39 °F 23 °F (2015)
Degree Days  
Heating Degree Days 19    
Moisture  
Dew Point 34 °F    
Average Humidity 66    
Maximum Humidity 87    
Minimum Humidity 50    
Precipitation  
Precipitation 0.00 in - - ()
Sea Level Pressure  
Sea Level Pressure 29.97 in    
Wind  
Wind Speed 13 mph (ESE)    
Max Wind Speed 25 mph    
Max Gust Speed 33 mph    
Visibility 10 miles    
Events Rain    
Averages and records for this station are not official NWS values.
T = Trace of Precipitation, MM = Missing Value Source: NWS Daily Summary

Daily Weather History Graph

Daily Weather History Graph

Search for Another Location

Airport or City:

Trip Planner

Search our weather history database for the weather conditions in past years. The results will help you decide how hot, cold, wet, or windy it might be!

Date:

Astronomy

Apr. 23, 2014 Rise Set
Actual Time 6:19 AM CDT 8:06 PM CDT
Civil Twilight 5:49 AM CDT 8:37 PM CDT
Nautical Twilight 5:12 AM CDT 9:14 PM CDT
Astronomical Twilight 4:32 AM CDT 9:54 PM CDT
Moon 3:01 AM CDT (4/23) 2:06 PM CDT (4/23)
Length of Visible Light 14h 48m
Length of Day
13h 47m
Waning Crescent, 34% of the Moon is Illuminated
Apr 23
Waning Crescent
Apr 29
New
May 6
First Quarter
May 14
Full
May 21
Last Quarter

Hourly Weather History & Observations

Time (CDT) Temp. Windchill Dew Point Humidity Pressure Visibility Wind Dir Wind Speed Gust Speed Precip Events Conditions
12:15 AM 50.0 °F - 32.0 °F 50% 30.05 in 10.0 mi East 5.8 mph - N/A   Overcast
12:35 AM 50.0 °F - 33.8 °F 54% 30.04 in 10.0 mi East 8.1 mph - N/A   Overcast
12:55 AM 50.0 °F - 32.0 °F 50% 30.05 in 10.0 mi East 6.9 mph - N/A   Overcast
1:15 AM 48.2 °F - 33.8 °F 58% 30.06 in 10.0 mi ESE 4.6 mph - N/A   Mostly Cloudy
1:35 AM 48.2 °F - 32.0 °F 54% 30.04 in 10.0 mi East 6.9 mph - N/A   Overcast
1:55 AM 46.4 °F 42.9 °F 32.0 °F 57% 30.05 in 10.0 mi ESE 6.9 mph - N/A   Mostly Cloudy
2:15 AM 46.4 °F 42.4 °F 32.0 °F 57% 30.05 in 10.0 mi ESE 8.1 mph - N/A   Overcast
2:35 AM 46.4 °F 43.5 °F 33.8 °F 62% 30.06 in 10.0 mi SE 5.8 mph - N/A Rain Light Rain
2:55 AM 44.6 °F 41.4 °F 33.8 °F 66% 30.05 in 10.0 mi ESE 5.8 mph - N/A Rain Rain
3:15 AM 44.6 °F 39.2 °F 32.0 °F 61% 30.04 in 10.0 mi East 10.4 mph - N/A   Overcast
3:35 AM 44.6 °F 39.7 °F 32.0 °F 61% 30.05 in 10.0 mi ESE 9.2 mph - N/A   Overcast
3:55 AM 44.6 °F 40.2 °F 32.0 °F 61% 30.06 in 10.0 mi SE 8.1 mph - N/A   Overcast
4:15 AM 44.6 °F 39.2 °F 32.0 °F 61% 30.05 in 10.0 mi ESE 10.4 mph - N/A   Overcast
4:35 AM 44.6 °F 38.4 °F 32.0 °F 61% 30.05 in 10.0 mi ESE 12.7 mph - N/A   Light Drizzle
4:55 AM 44.6 °F 38.4 °F 32.0 °F 61% 30.05 in 10.0 mi East 12.7 mph 19.6 mph N/A   Light Drizzle
5:15 AM 44.6 °F 37.8 °F 32.0 °F 61% 30.03 in 10.0 mi ESE 15.0 mph 18.4 mph N/A   Overcast
5:35 AM 44.6 °F 37.8 °F 32.0 °F 61% 30.03 in 10.0 mi ESE 15.0 mph 19.6 mph N/A   Overcast
5:55 AM 44.6 °F 38.4 °F 32.0 °F 61% 30.04 in 10.0 mi ESE 12.7 mph - N/A   Overcast
6:15 AM 44.6 °F 38.4 °F 32.0 °F 61% 30.04 in 10.0 mi ESE 12.7 mph - N/A   Overcast
6:35 AM 44.6 °F 38.8 °F 32.0 °F 61% 30.06 in 10.0 mi SE 11.5 mph 16.1 mph N/A   Overcast
6:55 AM 44.6 °F 38.4 °F 32.0 °F 61% 30.06 in 10.0 mi ESE 12.7 mph - N/A   Overcast
7:15 AM 42.8 °F 36.6 °F 32.0 °F 66% 30.06 in 10.0 mi ESE 11.5 mph 21.9 mph N/A   Overcast
7:35 AM 42.8 °F 37.0 °F 32.0 °F 66% 30.07 in 10.0 mi ESE 10.4 mph 19.6 mph N/A   Overcast
7:55 AM 42.8 °F 36.6 °F 32.0 °F 66% 30.07 in 10.0 mi ESE 11.5 mph - N/A   Overcast
8:15 AM 42.8 °F 35.4 °F 32.0 °F 66% 30.07 in 10.0 mi SE 15.0 mph 19.6 mph N/A   Overcast
8:35 AM 44.6 °F 37.4 °F 32.0 °F 61% 30.06 in 10.0 mi ESE 16.1 mph 21.9 mph N/A   Overcast
8:55 AM 44.6 °F 37.4 °F 32.0 °F 61% 30.05 in 10.0 mi ESE 16.1 mph 21.9 mph N/A   Overcast
9:15 AM 44.6 °F 37.8 °F 32.0 °F 61% 30.05 in 10.0 mi SE 15.0 mph 21.9 mph N/A   Overcast
9:35 AM 44.6 °F 37.2 °F 32.0 °F 61% 30.06 in 10.0 mi SE 17.3 mph 20.7 mph N/A   Overcast
9:55 AM 46.4 °F 39.0 °F 32.0 °F 57% 30.05 in 10.0 mi SE 19.6 mph 26.5 mph N/A   Overcast
10:15 AM 46.4 °F 38.3 °F 32.0 °F 57% 30.04 in 10.0 mi SE 23.0 mph 26.5 mph N/A   Overcast
10:35 AM 46.4 °F 38.7 °F 32.0 °F 57% 30.04 in 10.0 mi SE 20.7 mph 28.8 mph N/A   Mostly Cloudy
10:55 AM 46.4 °F 39.0 °F 32.0 °F 57% 30.03 in 10.0 mi SE 19.6 mph 28.8 mph N/A   Mostly Cloudy
11:15 AM 46.4 °F 39.0 °F 32.0 °F 57% 30.01 in 10.0 mi SE 19.6 mph 26.5 mph N/A   Overcast
11:35 AM 46.4 °F 39.2 °F 33.8 °F 62% 30.02 in 10.0 mi SE 18.4 mph 27.6 mph N/A   Overcast
11:55 AM 46.4 °F 38.7 °F 32.0 °F 57% 30.01 in 10.0 mi SE 20.7 mph 28.8 mph N/A   Overcast
12:15 PM 46.4 °F 40.4 °F 32.0 °F 57% 30.00 in 10.0 mi ESE 13.8 mph 25.3 mph N/A   Overcast
12:35 PM 46.4 °F 39.0 °F 32.0 °F 57% 29.99 in 10.0 mi SE 19.6 mph 29.9 mph N/A   Overcast
1:15 PM 46.4 °F 37.9 °F 32.0 °F 57% 29.97 in 10.0 mi SE 25.3 mph 33.4 mph N/A   Overcast
1:35 PM 46.4 °F 38.1 °F 32.0 °F 57% 29.96 in 10.0 mi SE 24.2 mph 31.1 mph N/A   Overcast
1:55 PM 46.4 °F 39.8 °F 32.0 °F 57% 29.96 in 10.0 mi ESE 16.1 mph 31.1 mph N/A   Overcast
2:15 PM 46.4 °F 38.3 °F 32.0 °F 57% 29.95 in 10.0 mi SE 23.0 mph 32.2 mph N/A Rain Light Rain
2:55 PM 44.6 °F 36.6 °F 35.6 °F 71% 29.94 in 10.0 mi ESE 19.6 mph 28.8 mph N/A   Light Drizzle
3:15 PM 44.6 °F 36.1 °F 35.6 °F 71% 29.94 in 10.0 mi SE 21.9 mph 28.8 mph N/A   Overcast
3:35 PM 44.6 °F 36.9 °F 35.6 °F 71% 29.92 in 10.0 mi SE 18.4 mph 32.2 mph N/A   Drizzle
3:55 PM 44.6 °F 37.8 °F 35.6 °F 71% 29.91 in 10.0 mi ESE 15.0 mph 27.6 mph N/A   Overcast
4:15 PM 44.6 °F 36.6 °F 35.6 °F 71% 29.92 in 10.0 mi SE 19.6 mph 24.2 mph N/A Rain Light Rain
4:35 PM 44.6 °F 37.2 °F 37.4 °F 76% 29.93 in 10.0 mi SE 17.3 mph 24.2 mph N/A   Overcast
4:55 PM 44.6 °F 36.9 °F 37.4 °F 76% 29.92 in 10.0 mi SE 18.4 mph 28.8 mph N/A   Light Drizzle
5:15 PM 44.6 °F 36.4 °F 35.6 °F 71% 29.90 in 10.0 mi SE 20.7 mph 29.9 mph N/A   Overcast
5:35 PM 44.6 °F 36.6 °F 35.6 °F 71% 29.89 in 10.0 mi SE 19.6 mph 32.2 mph N/A   Overcast
5:55 PM 44.6 °F 35.7 °F 35.6 °F 71% 29.87 in 10.0 mi ESE 24.2 mph 31.1 mph N/A   Overcast
6:15 PM 44.6 °F 36.6 °F 37.4 °F 76% 29.86 in 10.0 mi ESE 19.6 mph 26.5 mph N/A   Overcast
6:35 PM 44.6 °F 35.7 °F 37.4 °F 76% 29.85 in 10.0 mi SE 24.2 mph 32.2 mph N/A   Overcast
6:55 PM 44.6 °F 36.4 °F 37.4 °F 76% 29.84 in 10.0 mi ESE 20.7 mph 33.4 mph N/A   Overcast
7:15 PM 44.6 °F 36.1 °F 37.4 °F 76% 29.85 in 10.0 mi SE 21.9 mph 28.8 mph N/A   Overcast
7:35 PM 44.6 °F 35.5 °F 37.4 °F 76% 29.84 in 10.0 mi SE 25.3 mph 33.4 mph N/A   Overcast
7:55 PM 44.6 °F 36.4 °F 37.4 °F 76% 29.82 in 10.0 mi ESE 20.7 mph 29.9 mph N/A   Overcast
8:15 PM 44.6 °F 36.9 °F 37.4 °F 76% 29.82 in 10.0 mi ESE 18.4 mph 29.9 mph N/A   Overcast
8:35 PM 44.6 °F 36.6 °F 37.4 °F 76% 29.82 in 10.0 mi SE 19.6 mph 31.1 mph N/A   Overcast
8:55 PM 44.6 °F 36.6 °F 37.4 °F 76% 29.82 in 10.0 mi ESE 19.6 mph 26.5 mph N/A   Overcast
9:15 PM 44.6 °F 36.6 °F 37.4 °F 76% 29.82 in 10.0 mi ESE 19.6 mph 28.8 mph N/A   Overcast
9:55 PM 44.6 °F 36.6 °F 37.4 °F 76% 29.83 in 10.0 mi ESE 19.6 mph 26.5 mph N/A   Overcast
10:15 PM 44.6 °F 37.4 °F 37.4 °F 76% 29.84 in 10.0 mi ESE 16.1 mph 23.0 mph N/A   Overcast
10:35 PM 44.6 °F 38.1 °F 37.4 °F 76% 29.84 in 10.0 mi ESE 13.8 mph 20.7 mph N/A   Light Drizzle
10:55 PM 44.6 °F 38.4 °F 37.4 °F 76% 29.84 in 10.0 mi ESE 12.7 mph 19.6 mph N/A   Overcast
11:15 PM 44.6 °F 38.1 °F 37.4 °F 76% 29.84 in 10.0 mi ESE 13.8 mph 20.7 mph N/A   Drizzle
11:35 PM 42.8 °F 34.5 °F 39.2 °F 87% 29.84 in 10.0 mi ESE 18.4 mph 24.2 mph N/A   Drizzle
11:55 PM 42.8 °F 34.8 °F 39.2 °F 87% 29.83 in 10.0 mi ESE 17.3 mph 24.2 mph N/A Rain Rain